Theta_e
311 311 311 311 311 311 311 311 311 311 310 306 303 303 303 303 303 303 304 304 304 306 306 307 308 307 307 307 306 306 304 308 316 321 321 318 315 317 314 315 316 325 340 346 349 349 344 346 347 348 347 345 346 348 351 351 352 352 358 355 341 341 343 343 348 343 342 344 345 349 350 351 354 354 352 351 351 351 351 350 350 349 350 351 352 352 350 350
311 311 311 310 310 310 310 311 311 309 306 304 303 303 302 303 303 303 303 303 304 305 306 308 308 307 307 307 306 305 306 313 320 320 319 317 315 315 313 314 317 325 342 348 346 346 343 344 345 346 345 345 348 349 351 350 353 355 357 350 342 347 348 346 349 344 344 344 343 347 348 350 352 353 353 352 354 353 353 353 351 351 352 352 352 352 352 350
311 310 310 310 310 310 310 311 309 307 305 305 303 302 302 302 302 303 304 304 305 306 306 307 308 308 307 307 307 305 310 318 321 320 322 320 318 317 313 314 316 326 341 345 340 343 344 344 346 346 344 346 349 348 350 351 353 354 354 350 346 348 348 347 347 345 345 343 344 346 347 349 350 352 352 351 355 355 354 354 353 353 354 352 351 352 352 351
310 310 310 310 309 310 310 310 308 306 307 305 303 302 302 302 303 304 305 305 306 306 306 307 308 309 307 307 306 307 314 322 320 324 326 320 321 319 314 315 317 325 338 339 336 339 343 346 347 345 344 347 348 349 350 350 352 353 352 350 348 348 348 347 346 346 346 343 343 343 346 348 348 352 352 350 354 354 353 352 353 354 354 352 350 351 353 352
309 309 309 309 309 309 310 309 307 304 304 303 302 302 302 302 303 304 306 306 306 306 306 307 309 309 308 307 306 310 318 320 318 330 325 320 320 317 315 316 318 329 336 333 333 336 341 346 345 344 345 346 348 350 350 350 350 352 353 351 348 349 348 347 346 346 345 344 342 343 346 346 348 351 350 351 351 349 349 350 351 352 352 352 350 350 352 351
309 309 309 309 309 309 309 308 305 303 303 302 302 302 301 303 304 305 305 306 306 306 306 306 309 310 308 307 310 316 321 314 319 328 325 324 320 317 317 315 321 332 333 329 332 334 339 343 342 345 344 343 348 348 347 349 349 350 351 349 349 349 350 349 348 348 346 345 344 343 345 345 348 349 349 351 349 346 346 347 349 351 352 352 352 351 349 348
308 308 309 309 309 309 307 304 302 302 302 302 302 301 302 304 304 305 305 306 306 306 307 306 309 310 309 310 315 321 320 313 319 323 324 324 318 317 317 316 324 332 330 328 331 333 338 340 341 345 342 341 345 344 344 347 349 349 347 347 347 347 349 349 349 350 348 347 345 342 342 344 348 348 347 349 348 347 348 348 348 351 354 353 351 349 348 348
308 308 308 308 309 308 304 302 302 302 302 302 302 302 303 304 304 305 305 307 307 308 309 308 310 310 308 314 321 319 315 315 317 318 319 317 316 318 318 323 330 333 330 329 332 333 336 338 340 342 342 340 342 343 345 346 347 348 346 345 345 346 346 345 346 347 345 344 342 342 342 343 347 346 346 347 346 348 350 350 350 352 353 351 350 349 349 349
307 308 308 308 308 306 303 302 302 301 302 302 302 302 304 304 304 305 307 310 312 312 313 311 312 311 309 316 320 312 315 317 314 316 314 315 324 323 321 328 333 332 330 330 333 333 334 337 338 340 341 339 339 342 344 343 341 345 347 344 345 344 343 341 340 340 339 340 340 342 341 341 343 344 345 347 346 348 351 351 352 353 351 351 350 349 349 349
307 308 308 308 307 304 302 302 301 301 302 301 302 303 304 304 305 307 311 314 314 315 315 314 313 311 312 317 317 312 317 317 320 323 318 322 332 329 325 330 333 332 331 331 332 332 332 335 337 338 338 337 338 338 342 340 335 339 343 341 342 341 339 338 336 336 337 338 339 339 339 339 340 344 345 344 347 350 353 354 353 353 352 351 350 348 350 350
307 308 308 307 305 302 301 301 301 301 301 301 303 303 304 305 307 311 315 314 314 315 316 316 314 312 315 317 315 314 316 319 324 329 327 329 334 331 331 334 333 332 331 332 333 332 331 333 337 337 335 335 336 335 337 337 335 336 336 336 337 336 337 337 336 336 336 336 336 337 338 336 336 344 345 342 349 352 353 355 354 354 353 352 351 349 351 351
307 307 307 306 303 301 301 301 301 302 301 302 303 303 305 306 310 314 315 314 314 315 315 316 313 314 319 315 314 316 318 325 328 332 335 335 335 334 334 335 333 331 331 332 332 332 332 332 335 336 331 331 334 332 331 334 335 333 333 333 333 333 335 334 334 334 334 334 334 333 333 333 338 344 344 344 351 352 353 356 355 354 354 353 352 351 352 353
307 307 307 304 302 301 301 301 301 301 301 302 303 304 305 307 313 317 316 314 314 315 316 316 315 317 319 315 315 315 317 325 328 331 334 331 330 331 332 334 331 331 331 331 332 333 332 332 335 335 329 328 331 330 329 331 332 330 331 331 331 330 331 333 333 333 334 333 333 331 323 327 339 344 342 347 352 353 353 356 355 354 354 353 353 352 353 353
307 307 306 303 302 301 301 301 301 301 302 302 303 304 305 309 316 317 317 315 314 316 316 316 316 319 320 318 315 314 314 319 322 326 327 321 320 323 328 332 331 330 331 331 332 333 332 334 335 332 328 327 329 329 328 329 329 330 329 328 329 322 324 335 334 332 335 331 332 331 319 324 339 343 343 349 352 352 353 355 354 354 355 354 354 354 353 353
306 306 305 303 303 303 301 301 302 302 302 302 303 305 307 312 317 318 317 316 315 316 316 317 318 320 319 317 316 316 314 314 316 321 323 319 317 319 325 331 331 331 331 331 330 331 331 332 332 329 328 328 328 328 328 328 329 331 324 321 325 320 324 335 332 331 335 331 333 330 321 326 336 342 347 351 351 351 353 355 355 355 356 355 355 355 353 353
306 305 303 302 303 302 300 301 302 302 302 303 303 305 309 315 318 318 318 317 316 315 317 319 318 320 320 317 320 320 318 315 313 316 318 320 318 318 323 328 329 330 331 329 329 332 331 330 330 328 329 329 328 328 327 324 323 329 324 316 320 321 322 330 331 332 332 332 334 330 326 330 336 344 349 351 350 351 352 354 356 356 356 356 355 354 353 353
306 304 303 302 302 301 301 301 302 302 303 303 304 306 312 317 318 319 319 318 318 318 320 321 318 320 321 317 318 318 320 319 317 317 315 316 316 317 323 326 327 328 329 326 326 330 329 329 330 328 330 329 328 328 322 316 315 321 323 319 321 324 322 323 329 331 330 331 333 334 332 332 337 345 349 349 350 351 352 354 356 357 357 357 356 354 354 354
305 303 302 302 302 301 301 301 302 303 304 303 305 307 310 316 318 319 320 321 321 322 323 320 317 322 322 318 317 317 319 320 320 320 317 316 315 317 323 325 326 325 325 325 326 328 327 328 330 329 329 328 328 327 318 315 316 316 318 317 319 324 324 323 327 330 331 331 332 333 334 335 336 342 348 349 349 350 352 353 355 356 357 358 357 355 355 355
304 302 302 302 302 301 301 302 303 304 304 304 306 308 312 317 319 322 323 322 321 324 327 321 319 323 321 319 318 318 320 320 320 321 322 320 315 317 324 324 325 324 324 324 325 327 328 328 329 326 325 325 327 326 321 322 323 321 321 320 318 320 322 328 331 330 330 331 332 333 331 335 336 338 347 348 348 350 351 353 355 356 357 357 357 356 356 356
303 302 302 302 301 301 301 302 303 305 305 307 309 311 313 313 317 321 318 315 314 316 318 316 318 321 321 320 320 319 319 320 320 320 323 321 317 319 323 324 326 325 324 325 324 326 327 326 326 325 323 325 326 325 326 326 325 325 323 322 321 320 322 330 333 330 329 328 329 333 332 333 334 335 343 347 348 350 349 354 356 357 357 358 358 356 357 356
303 302 302 302 301 301 301 302 304 305 306 309 310 310 309 308 309 311 310 310 311 312 312 312 315 317 320 321 321 319 319 319 319 321 323 321 319 320 321 324 326 324 324 324 323 325 325 323 325 326 324 325 325 325 325 324 324 324 322 320 319 320 323 331 334 329 329 328 327 333 331 332 335 332 336 345 348 349 349 352 356 358 358 357 358 357 358 357
303 302 302 302 302 301 301 303 304 305 307 310 309 308 308 307 308 308 308 309 310 312 311 312 313 313 316 318 320 319 318 319 319 320 323 322 319 320 321 323 324 324 324 324 324 325 323 322 324 325 325 324 325 324 324 324 324 323 322 319 316 320 324 328 332 330 329 327 327 332 330 330 334 332 335 344 348 349 349 350 354 358 358 358 358 357 358 358
303 302 302 301 301 301 302 303 304 307 308 309 309 308 308 308 308 308 308 309 310 312 312 312 313 313 313 315 317 317 317 319 319 320 323 323 320 319 321 322 322 324 323 324 325 322 319 321 324 325 324 324 324 325 324 324 323 322 320 316 314 321 321 319 326 332 331 328 329 331 329 329 333 333 335 341 346 348 348 348 352 355 358 358 358 357 358 358
304 303 302 301 301 302 302 303 306 307 308 309 308 308 308 307 308 308 309 311 312 313 314 314 314 314 315 315 315 315 316 318 319 320 322 323 321 320 321 322 322 323 324 324 326 323 322 323 325 324 323 325 325 326 325 321 319 320 320 317 316 322 322 320 327 330 329 328 330 329 322 323 331 332 333 338 345 348 347 348 351 353 356 357 357 357 357 358
303 303 302 301 301 302 303 306 308 307 308 310 307 307 308 307 309 309 310 313 314 315 316 315 315 315 315 316 315 315 316 317 318 320 321 323 322 321 322 322 322 322 322 323 325 325 324 324 325 324 323 325 325 324 324 320 316 316 320 321 320 323 324 324 328 327 321 319 327 327 315 316 328 332 333 336 346 350 348 349 351 352 356 356 358 357 357 358
303 303 302 302 301 301 304 308 308 307 309 309 307 307 307 308 309 308 312 315 314 316 317 315 316 315 316 315 315 315 316 317 318 319 321 322 322 322 322 322 322 323 322 324 325 324 324 325 326 325 324 326 325 322 322 322 316 312 319 323 323 325 322 322 324 321 314 315 327 329 317 315 321 328 333 337 348 353 350 350 351 352 356 357 358 358 357 357
303 303 302 302 301 302 306 308 307 307 308 306 306 307 307 309 309 309 314 314 312 317 317 315 316 315 315 316 315 316 316 318 319 319 320 321 323 323 323 322 322 322 323 324 320 321 324 325 325 326 326 325 323 320 322 324 316 313 321 324 323 324 322 322 322 318 316 318 324 328 322 315 314 323 335 338 345 353 352 353 352 353 357 357 356 357 357 357
304 303 302 302 301 302 306 307 308 308 307 306 307 307 307 309 309 311 317 313 312 319 317 314 315 314 315 315 316 318 317 318 319 319 320 321 322 323 322 323 322 321 324 322 316 320 326 324 325 326 325 324 322 321 323 324 319 318 323 324 324 325 323 323 321 316 318 317 314 319 321 317 313 321 334 336 339 346 350 353 354 354 356 356 356 356 356 357
303 303 303 301 301 304 306 307 309 309 306 306 307 307 308 310 311 314 316 314 314 317 315 314 314 314 316 315 315 318 318 318 318 318 320 321 321 322 323 323 322 322 322 321 320 323 326 324 326 326 325 324 323 324 324 323 323 322 323 324 324 324 323 323 320 315 315 315 311 314 317 315 313 318 326 329 331 338 345 348 352 354 355 356 356 355 356 357
303 303 302 301 303 306 307 308 309 307 306 306 306 307 310 312 314 315 314 315 316 316 315 315 315 314 317 317 316 318 317 318 317 317 319 320 320 321 322 323 323 322 322 322 323 324 324 324 325 326 325 324 324 325 324 323 324 323 322 323 321 322 323 321 319 315 313 312 312 313 316 316 313 315 322 327 331 338 340 341 347 353 354 355 356 355 354 356
303 302 302 302 304 306 307 308 307 306 306 307 307 309 312 314 314 313 313 313 312 316 316 316 316 316 316 317 318 318 317 318 317 318 319 320 321 321 321 322 322 322 321 320 322 322 322 323 324 325 325 324 324 324 324 325 325 323 323 321 316 316 317 315 315 315 312 311 312 314 317 315 311 314 324 331 334 337 338 337 341 350 354 354 355 354 353 355
302 302 302 302 303 305 306 306 306 306 307 307 307 310 314 314 311 311 312 311 312 315 317 316 315 316 316 316 317 317 318 318 318 318 320 321 321 321 321 321 321 320 315 315 318 319 320 322 323 324 324 325 323 321 322 324 324 323 321 316 311 311 313 313 311 312 311 311 312 315 315 312 311 317 327 332 332 334 336 336 336 344 352 353 354 354 354 354
302 302 303 303 304 306 306 305 306 307 307 307 308 311 312 310 310 311 311 313 314 314 315 314 314 315 315 316 317 318 317 317 317 318 320 321 322 322 321 322 323 320 316 316 315 313 315 320 323 323 323 324 323 319 317 318 321 321 317 313 311 311 313 314 312 311 311 310 312 315 315 311 311 319 329 331 330 332 334 336 336 337 345 352 353 353 352 354
302 303 305 305 305 306 306 305 307 306 307 307 308 309 309 308 309 310 312 316 315 313 314 313 313 314 316 316 317 317 316 317 317 317 319 321 321 321 321 321 322 323 322 318 315 313 312 315 320 322 321 323 324 321 320 320 320 320 322 318 313 311 313 313 312 310 311 310 311 314 314 310 310 320 330 329 329 331 332 334 335 335 338 346 351 351 350 353
302 305 306 306 306 306 305 305 306 307 308 308 307 307 306 306 307 309 313 314 312 312 313 312 313 314 315 316 317 317 316 316 316 317 319 320 320 321 322 322 322 324 322 317 316 316 312 313 320 323 322 323 322 322 324 323 319 321 323 318 313 314 315 313 311 311 310 310 310 311 312 314 318 326 333 330 328 330 330 331 332 333 334 338 345 350 349 351
305 306 306 306 306 305 305 306 307 308 308 307 305 304 305 307 310 311 312 312 311 311 311 312 314 313 314 315 317 318 317 316 317 317 317 319 321 322 323 323 322 323 322 319 318 318 311 314 323 323 321 323 322 322 323 321 319 320 318 314 317 322 319 312 310 312 311 311 311 311 312 315 319 324 329 329 329 330 330 330 330 333 335 336 342 349 350 350
307 308 306 306 305 304 306 307 308 309 308 307 305 305 306 309 310 310 311 310 310 310 310 313 315 313 314 316 317 318 317 316 317 315 315 317 318 321 323 323 322 323 324 322 321 322 316 314 323 324 321 322 323 322 323 323 322 319 314 315 320 322 320 315 311 312 312 310 310 310 310 312 311 315 324 329 328 328 330 330 331 333 335 338 342 348 350 350
308 308 307 306 304 304 306 307 309 310 309 307 305 305 306 308 309 309 309 309 309 309 309 311 313 314 316 316 316 317 316 316 317 316 315 315 316 318 320 320 321 321 323 322 322 325 321 314 319 325 322 322 324 322 320 322 324 321 319 321 320 315 313 315 313 312 311 311 311 308 309 310 309 313 322 327 327 328 329 330 331 332 333 337 341 346 351 351
308 307 307 305 303 305 306 307 309 310 309 307 306 306 307 307 308 308 308 308 308 308 308 309 311 313 315 315 315 316 316 315 317 316 315 316 317 317 317 318 320 320 321 323 323 325 325 316 315 323 325 323 323 320 316 317 321 322 322 323 321 316 314 314 314 312 311 311 312 310 309 310 314 320 324 328 330 331 330 331 332 331 332 336 338 341 348 351
307 307 306 304 304 305 306 307 308 308 307 306 307 307 307 307 307 307 307 307 308 308 308 309 310 312 313 313 313 314 315 315 316 316 315 316 316 316 316 316 318 320 321 323 323 324 326 320 314 321 325 321 319 320 319 318 320 319 317 316 317 318 318 317 315 312 311 311 311 311 310 309 318 327 327 328 332 331 332 332 333 332 331 333 337 337 343 351
306 306 305 304 304 305 306 307 306 305 305 305 306 305 305 306 307 307 306 307 307 308 308 308 309 310 311 311 312 313 315 315 315 315 315 316 317 316 316 315 316 320 322 322 323 323 324 322 316 316 318 316 318 323 324 323 323 320 318 316 316 316 315 314 315 314 312 310 310 311 310 311 321 329 327 327 329 330 332 331 331 333 331 332 336 336 342 351
305 305 305 305 304 305 306 305 304 305 305 304 304 304 305 306 306 306 306 307 307 308 308 308 308 309 309 310 311 312 313 314 315 316 316 316 317 315 315 315 316 320 323 324 323 323 325 326 318 314 317 319 323 326 324 324 325 324 322 322 322 320 315 311 312 313 313 311 311 311 309 314 325 329 327 327 329 328 329 330 331 332 331 333 334 332 340 351
304 304 305 305 305 306 306 304 304 305 304 304 304 304 304 305 305 305 306 306 307 308 309 309 309 309 309 310 311 311 312 314 314 316 317 317 316 314 313 314 316 319 324 325 325 323 324 326 319 315 320 322 324 325 325 325 325 323 322 323 322 321 319 317 317 317 314 311 311 311 309 315 326 330 328 328 327 327 328 329 330 331 331 333 332 335 347 354
304 304 305 305 305 305 305 304 304 305 304 304 304 303 304 304 304 305 305 306 307 308 308 309 310 310 310 310 310 311 311 313 314 315 316 316 315 314 313 313 315 318 319 321 324 321 320 323 321 317 318 319 319 320 320 322 322 321 323 324 324 323 323 322 320 319 316 312 312 312 309 314 326 332 329 328 327 327 327 328 329 331 333 332 334 346 355 357
304 304 304 304 305 305 304 304 304 304 304 304 304 303 304 304 304 305 305 305 307 307 306 308 309 309 310 310 310 311 311 312 314 315 315 315 314 314 313 313 314 316 317 318 321 320 322 326 323 318 316 317 316 316 316 318 320 321 323 324 324 324 323 320 316 314 315 315 314 312 310 316 328 332 329 328 329 328 328 329 329 330 333 337 344 351 352 353
303 304 304 304 304 305 304 303 304 304 304 304 304 304 304 304 304 304 304 305 306 305 305 307 309 309 310 311 311 311 311 311 312 314 314 315 314 314 313 313 313 315 318 319 318 319 324 327 325 323 321 320 319 322 325 323 320 317 319 322 324 324 324 321 315 312 316 317 314 315 316 316 323 329 329 329 329 329 329 330 328 331 339 345 351 352 347 348
303 304 304 304 305 304 304 304 304 303 304 304 304 304 304 304 304 304 305 305 305 305 306 308 308 309 309 310 311 312 311 311 312 312 313 313 314 314 313 313 314 315 318 318 316 320 324 323 324 327 327 325 324 326 326 324 321 318 318 320 322 325 325 320 315 315 320 316 312 320 324 318 320 328 330 329 330 330 330 329 329 334 341 344 350 352 347 346
304 303 303 304 304 304 303 303 304 303 303 303 303 304 304 304 304 304 304 305 304 304 306 308 308 308 308 308 309 311 312 313 312 312 313 313 314 314 314 313 313 314 316 315 315 319 321 321 322 324 324 324 323 323 323 323 324 323 322 321 320 323 322 319 317 320 323 317 315 324 327 322 324 329 329 329 330 329 329 330 331 335 339 340 344 349 346 343
304 303 303 303 304 303 303 303 303 303 303 303 304 304 304 303 304 304 304 304 304 304 306 307 307 307 307 307 308 311 311 312 313 313 313 313 313 313 314 314 314 314 314 314 315 317 317 320 323 321 320 321 322 322 323 322 322 322 323 323 323 323 322 321 322 324 323 321 322 327 328 327 330 330 328 329 329 329 329 331 331 331 334 338 339 340 338 337
304 304 304 304 303 303 303 303 303 303 302 303 304 304 303 303 303 304 304 304 305 305 306 306 307 306 307 307 308 309 309 310 311 311 311 312 313 313 313 314 314 314 313 313 315 316 316 319 321 319 318 319 320 322 322 322 322 321 321 324 324 323 323 322 323 324 323 322 324 326 326 327 331 331 330 330 330 330 330 330 330 329 330 334 334 333 333 334
305 304 305 305 304 304 303 303 303 303 302 303 303 303 303 303 302 303 303 304 305 306 306 306 306 306 307 307 307 307 308 308 309 309 310 310 311 311 312 312 313 313 313 314 315 315 316 317 318 319 318 318 319 321 320 320 321 319 318 322 323 321 321 322 323 325 322 322 323 322 319 324 330 331 330 330 329 330 330 330 330 330 329 330 330 332 334 336
305 305 305 305 305 304 303 303 302 302 302 302 303 303 303 303 302 303 304 305 306 306 306 305 306 306 307 308 308 308 308 308 308 308 308 308 309 309 310 311 311 311 312 314 314 315 315 315 316 318 318 318 319 319 319 319 319 317 318 322 323 323 323 323 323 326 325 324 322 319 321 327 331 330 330 331 329 329 330 330 330 331 332 331 331 333 335 334
Wind_Speed
24 24 24 24 24 24 24 24 24 23 23 25 28 29 29 29 29 28 26 24 24 23 23 22 20 19 18 19 19 20 21 20 16 11 16 24 18 15 15 9 14 23 22 20 21 21 20 19 19 19 15 10 8 6 9 8 5 5 4 5 4 3 0 3 4 4 2 5 5 3 6 5 6 8 6 7 7 8 11 7 7 7 4 6 16 25 30 31
24 24 24 25 25 25 25 24 24 24 25 28 31 31 30 31 31 29 27 26 25 23 22 20 20 19 17 17 18 19 20 18 16 17 24 28 23 21 18 13 17 25 25 22 24 23 20 18 19 19 12 8 7 7 9 8 7 6 4 5 5 1 3 3 3 4 3 5 5 2 4 5 5 8 8 8 8 10 11 9 9 9 9 12 20 27 29 30
24 24 25 25 25 26 26 25 25 26 27 30 32 32 32 32 32 30 29 27 24 22 21 19 19 18 16 15 15 16 16 15 15 17 19 15 16 22 19 18 22 27 26 23 24 22 19 18 20 18 11 8 7 8 9 8 8 7 6 6 4 1 1 2 2 1 3 4 4 2 2 4 4 7 7 6 7 10 10 9 11 12 13 16 20 26 29 30
25 25 25 25 26 26 27 26 26 28 28 31 34 34 33 33 32 31 29 26 23 21 20 19 17 16 14 12 11 12 12 13 11 4 3 3 4 11 18 22 25 28 25 21 21 20 18 19 20 17 11 8 7 9 9 8 7 6 7 7 2 1 3 4 3 2 1 3 4 2 1 4 4 6 7 6 5 7 8 10 13 14 17 19 21 24 28 28
26 26 26 26 27 27 27 26 28 31 32 35 36 35 35 34 32 30 27 25 23 22 20 18 16 15 13 9 8 8 8 8 1 7 10 8 10 9 15 24 28 28 23 18 18 18 18 18 18 15 10 8 9 9 10 11 8 6 8 10 5 3 3 4 3 2 1 3 4 2 2 3 5 7 8 8 5 3 4 9 12 14 19 21 23 24 25 25
27 28 28 28 28 28 27 27 31 34 36 38 37 37 36 34 32 29 27 24 24 23 20 18 16 13 10 6 4 4 7 5 4 7 8 5 9 8 10 22 28 26 22 19 18 18 17 18 16 13 10 10 12 11 10 13 11 8 8 10 9 8 6 3 2 3 3 5 5 3 3 3 7 7 8 10 8 0 3 7 11 14 18 22 24 24 24 24
28 29 29 29 29 29 29 32 35 37 38 39 39 39 36 33 31 29 27 26 25 23 21 19 15 12 6 2 0 4 8 12 8 3 6 3 3 2 5 21 29 25 20 20 19 17 17 18 17 13 11 10 12 13 9 11 13 10 9 9 9 9 9 7 5 5 6 7 7 6 6 7 9 8 7 10 11 3 3 8 12 15 19 21 22 22 23 24
29 30 30 30 30 30 32 36 38 39 40 41 41 39 35 32 30 29 28 27 25 23 21 18 14 10 3 2 5 7 10 17 16 10 12 14 10 4 10 22 28 25 22 22 21 19 18 19 19 13 12 11 9 12 9 9 13 14 12 9 7 8 8 8 8 9 10 8 8 8 10 9 9 8 7 9 10 6 6 10 15 17 19 20 21 22 21 21
29 30 29 30 30 31 36 39 40 41 42 43 42 37 33 31 31 30 28 26 22 19 18 16 13 6 4 5 7 8 10 13 12 12 15 16 11 11 18 24 27 26 23 24 23 22 18 16 19 15 11 11 8 10 11 9 8 11 14 11 9 10 9 9 10 11 10 8 7 9 11 10 9 9 9 10 11 9 10 14 16 19 19 19 20 21 21 20
30 30 29 30 31 34 39 41 42 43 43 43 40 34 32 32 31 28 24 21 18 16 15 13 10 8 8 6 8 8 6 3 5 8 11 9 13 19 23 25 29 27 23 23 24 23 18 15 19 13 8 8 8 8 12 11 4 4 9 11 12 12 10 11 12 12 10 8 9 11 11 9 8 9 7 8 12 13 14 16 17 18 19 19 19 20 19 20
31 31 30 31 33 38 41 42 43 43 44 43 37 32 33 33 29 23 18 16 15 14 12 10 10 13 10 7 10 7 1 1 4 3 4 9 16 23 23 23 28 28 23 22 23 25 22 19 17 10 5 7 9 9 10 11 7 5 6 9 12 12 11 12 13 13 9 8 9 10 11 10 8 11 10 7 14 16 16 17 18 18 17 18 19 19 17 17
32 32 31 33 36 41 42 43 43 43 44 40 34 32 33 32 24 16 13 13 13 12 10 10 13 14 10 7 13 13 1 3 1 4 6 10 15 18 17 19 25 26 23 21 22 27 24 20 18 13 6 5 9 8 8 10 9 9 9 10 11 11 12 13 14 12 10 8 7 7 10 10 11 14 12 9 16 17 16 17 18 17 16 17 17 17 15 16
31 32 32 34 39 41 42 44 44 43 43 36 31 32 32 28 17 10 11 12 11 7 6 11 15 13 9 7 11 16 11 2 4 8 10 11 11 10 10 15 22 21 20 20 20 24 22 17 18 16 8 6 8 3 1 8 9 10 10 9 10 9 11 13 13 12 11 9 6 6 8 7 12 16 11 12 17 17 16 17 17 16 15 15 16 15 15 17
31 31 31 36 41 42 43 45 44 44 40 32 29 31 30 22 10 8 12 12 10 3 7 13 14 10 8 9 7 10 13 8 6 10 12 11 9 7 7 13 18 16 16 16 16 20 18 15 17 15 10 8 6 3 3 6 7 9 10 9 8 8 9 11 9 10 10 6 7 9 8 6 7 11 12 14 18 18 17 17 17 16 15 15 15 15 16 17
32 31 32 38 40 42 44 45 45 43 36 29 28 29 25 15 6 6 10 11 9 6 11 12 11 7 6 11 9 8 12 11 14 18 15 11 9 6 8 13 15 14 13 9 10 15 15 14 15 11 10 10 6 5 8 7 6 8 8 8 9 8 9 9 8 9 10 5 8 10 8 7 3 10 13 14 16 18 16 17 18 17 18 16 15 15 15 16
34 33 37 40 41 43 45 46 45 40 32 26 27 26 18 11 4 5 7 9 9 9 9 7 8 7 6 5 4 6 11 13 17 21 20 15 12 8 9 13 13 13 13 8 6 11 12 12 12 10 10 10 9 8 7 8 8 8 8 9 10 11 10 9 8 10 11 6 9 11 8 7 2 9 13 14 15 17 15 17 19 18 18 17 15 15 15 15
35 36 39 42 44 45 45 46 42 34 29 26 26 21 12 8 4 1 5 6 5 4 2 3 6 6 7 3 4 6 11 13 11 15 21 21 17 11 10 12 11 13 13 9 7 10 12 11 9 9 10 9 10 10 9 10 10 8 9 9 10 11 10 9 7 7 9 9 10 12 11 10 2 7 11 13 15 16 14 16 18 17 16 16 15 15 15 16
35 38 41 43 45 45 45 45 37 31 30 26 22 16 9 8 5 3 1 1 2 4 4 3 6 5 7 8 5 2 6 9 8 11 16 20 20 16 13 11 10 14 13 9 9 11 11 10 8 9 10 10 11 12 12 12 11 11 10 9 10 10 9 10 7 6 7 9 10 11 11 11 8 7 9 11 13 15 14 14 16 17 17 16 15 15 16 16
36 40 42 44 45 45 45 41 32 30 28 21 19 12 5 6 6 6 5 6 5 6 4 4 9 5 2 6 6 2 4 4 6 10 12 15 19 18 16 12 12 15 13 9 11 13 10 9 10 10 11 13 15 15 14 13 11 13 13 10 11 11 10 12 8 4 4 7 9 11 11 11 10 8 10 11 12 13 13 13 13 14 16 15 15 15 16 17
38 41 43 44 45 45 44 37 29 27 21 20 21 11 3 5 4 3 3 8 10 12 12 7 12 12 7 1 3 2 4 6 7 11 14 16 19 19 15 12 14 14 13 12 12 12 11 10 12 13 14 16 18 18 16 14 10 11 12 11 13 13 10 12 9 5 4 7 9 11 12 11 10 8 9 11 12 13 14 14 14 15 15 15 16 17 17 17
39 41 43 44 45 45 42 33 25 20 17 19 18 7 4 8 6 5 7 12 14 15 19 18 16 18 16 8 1 2 3 7 9 10 14 17 20 19 14 14 15 12 14 15 13 11 12 13 14 16 17 16 17 18 17 16 13 10 11 10 12 13 11 12 9 6 5 7 9 10 12 12 11 10 8 11 13 14 15 16 16 17 16 15 17 18 17 15
39 41 43 44 44 44 40 29 20 17 14 14 14 9 7 7 6 7 8 11 14 13 17 20 19 19 19 19 13 5 5 7 10 10 14 17 19 17 15 16 16 13 16 16 12 11 13 15 17 18 16 15 15 17 18 18 15 11 10 10 11 12 11 12 10 8 7 6 9 11 12 12 12 10 8 11 14 12 14 16 16 17 17 15 16 17 17 16
40 41 42 44 43 43 38 23 16 17 12 11 13 11 7 7 7 8 7 9 15 14 16 18 18 18 18 18 18 13 11 12 11 12 16 17 17 17 16 18 18 15 17 18 15 13 12 13 18 18 16 17 16 15 17 16 13 12 11 11 12 12 11 11 10 10 9 8 10 12 11 11 11 10 9 12 14 12 13 16 15 16 17 17 17 16 17 18
40 41 42 44 42 42 34 16 12 15 10 6 11 10 8 9 8 8 7 7 11 12 12 13 13 14 15 11 12 16 16 13 12 13 18 19 16 15 17 18 20 17 16 22 21 17 13 9 13 20 18 18 18 16 17 14 11 14 16 14 13 13 14 11 6 7 7 9 11 11 10 10 12 13 12 12 13 13 13 15 15 15 16 16 16 16 17 19
40 40 41 42 40 40 29 8 9 17 10 3 9 13 11 11 9 7 6 5 8 7 5 8 7 7 9 9 11 14 13 14 15 14 16 20 17 14 14 14 15 17 20 24 22 17 16 9 9 19 20 19 19 17 17 15 11 13 17 19 16 13 14 13 8 6 6 8 10 11 10 9 12 16 15 11 12 14 13 14 16 15 14 14 14 16 17 18
39 38 40 40 38 38 24 4 11 20 11 3 12 16 14 11 8 6 5 4 7 4 6 6 5 5 8 9 11 12 9 12 16 16 16 21 20 13 12 11 10 16 21 20 15 10 13 12 11 17 19 20 20 17 18 17 11 11 13 17 19 17 15 13 11 9 9 9 9 9 10 9 10 13 12 9 12 14 14 15 16 15 14 15 15 15 16 17
38 37 39 39 35 32 17 6 14 17 7 8 17 19 15 11 7 4 5 5 5 4 7 3 2 4 5 7 12 11 4 3 11 17 18 20 20 14 13 14 11 15 15 12 11 10 13 17 15 17 18 17 17 15 16 18 13 10 10 12 17 19 18 15 12 10 9 10 9 9 10 9 10 11 9 9 12 13 14 15 16 16 16 17 16 16 17 18
37 37 38 37 33 24 12 10 15 11 9 16 21 19 15 11 6 5 5 5 2 5 5 2 3 3 2 6 14 12 3 4 7 14 20 22 21 15 15 18 16 17 17 13 12 12 16 20 18 19 17 13 14 14 16 18 14 11 7 7 11 15 17 15 12 10 10 10 11 11 12 10 11 11 10 11 13 13 14 16 16 17 17 17 17 17 18 18
37 37 36 37 31 16 10 12 11 10 15 21 21 19 16 9 5 4 4 5 2 4 1 2 4 3 3 6 13 13 5 2 1 7 17 22 21 15 12 16 17 18 20 18 14 12 13 17 18 17 15 12 13 14 17 18 15 12 8 6 9 11 13 13 11 10 10 11 13 14 14 11 10 11 11 12 14 14 13 13 15 17 17 17 17 18 18 18
37 37 35 36 26 12 11 11 9 13 20 23 22 21 14 5 5 5 6 5 2 3 2 2 2 0 1 2 9 12 12 9 1 6 12 15 20 18 10 12 15 14 17 17 16 15 10 11 15 15 13 13 12 12 16 18 16 13 9 8 9 9 9 10 9 8 9 12 15 16 17 13 12 11 11 11 12 13 13 12 13 16 17 17 17 17 18 17
37 36 33 28 18 11 12 10 12 20 23 24 25 19 9 5 5 7 6 1 3 4 3 3 4 4 4 6 4 9 12 12 6 8 11 11 16 17 11 11 12 11 13 14 15 18 13 10 12 13 15 15 12 12 13 15 16 13 9 9 8 7 7 7 7 8 11 12 12 15 18 16 14 12 10 12 15 15 14 13 13 15 18 17 16 16 17 17
37 34 26 16 9 8 10 13 20 24 22 25 23 12 6 5 7 9 5 2 2 4 6 6 8 8 9 11 7 7 9 10 10 10 11 12 14 15 15 13 11 12 13 12 13 17 15 12 12 13 16 17 14 12 10 12 15 13 10 10 9 7 7 8 9 10 11 11 9 11 15 16 16 13 11 12 14 15 14 14 14 15 17 17 17 16 16 16
36 30 17 9 8 7 11 18 22 21 22 25 17 6 6 7 7 6 5 3 3 7 9 9 13 13 13 11 5 5 7 8 11 12 12 13 14 15 19 18 16 14 11 11 13 13 13 13 15 16 14 17 17 12 10 11 13 14 12 11 10 8 9 10 10 9 9 10 10 11 11 12 14 13 14 17 15 12 12 13 13 13 14 15 17 16 16 17
34 25 12 8 9 9 14 20 20 20 21 19 10 6 8 10 7 4 3 4 8 10 10 12 15 14 12 8 1 1 5 7 9 12 12 13 13 13 16 19 22 17 9 10 12 12 14 12 16 19 12 15 21 15 12 11 11 14 13 11 11 9 8 8 8 9 9 8 10 12 9 10 9 4 7 15 17 14 13 12 12 12 12 13 15 16 16 17
29 20 9 6 9 12 16 19 18 18 16 11 7 7 8 9 7 5 4 7 10 10 14 16 14 12 9 6 1 3 2 3 7 11 11 12 12 12 14 17 21 18 11 10 9 11 17 11 12 20 14 15 21 18 14 12 10 12 12 11 12 10 8 6 6 6 6 6 9 11 8 7 5 1 1 6 12 15 15 15 15 15 15 14 14 15 15 16
24 15 6 5 11 16 18 18 17 15 11 8 6 7 6 4 4 5 7 10 10 11 16 15 8 7 6 4 4 3 4 3 4 7 9 12 11 10 13 12 15 20 16 11 8 9 13 9 11 19 18 17 20 19 18 14 9 9 12 13 11 11 10 8 7 5 4 7 7 8 9 8 6 6 7 9 10 13 14 14 15 15 15 15 13 14 15 15
20 15 6 6 15 19 18 16 15 12 8 6 7 6 4 4 6 7 8 10 11 11 12 8 3 4 4 2 1 4 7 6 4 5 8 13 7 1 4 2 2 12 13 7 8 9 9 8 11 18 20 18 18 19 20 18 12 8 11 13 10 10 10 8 7 6 7 9 7 9 13 11 9 8 10 15 16 15 15 15 15 14 14 14 13 14 15 16
19 15 5 7 19 20 17 16 13 9 6 5 7 6 3 4 6 8 9 10 11 10 9 7 4 4 4 5 5 7 9 6 1 3 7 10 4 5 4 2 4 2 4 5 5 8 8 7 10 16 20 17 17 17 16 19 19 12 8 11 11 10 10 8 7 8 9 9 8 11 14 11 10 8 6 14 18 17 17 16 15 16 15 14 14 15 16 16
17 11 2 12 23 20 17 15 11 8 6 5 6 4 3 6 8 9 10 10 9 8 8 9 7 5 5 7 7 8 8 7 5 5 4 3 1 5 8 4 3 7 8 5 5 5 5 7 7 13 18 16 14 14 12 15 18 15 10 10 11 9 8 9 8 7 8 8 7 10 12 9 9 10 10 11 13 14 15 15 15 16 16 14 14 14 15 15
13 6 3 18 25 21 18 15 9 5 4 4 4 5 6 8 9 9 9 10 8 6 8 9 9 8 8 9 9 7 7 7 7 6 3 2 1 5 10 9 7 10 10 5 8 6 6 7 6 10 16 15 12 12 14 14 15 14 12 12 12 9 7 8 9 8 8 8 7 7 9 6 3 7 13 12 10 11 12 13 13 14 15 15 15 14 14 14
10 4 5 20 25 22 19 10 2 4 4 3 4 6 8 9 9 10 9 9 8 6 8 10 11 10 10 9 9 7 7 7 7 6 4 1 2 4 8 11 10 11 8 4 10 8 6 7 8 8 11 13 12 13 16 17 16 15 12 12 12 11 9 8 9 10 9 8 7 7 8 4 2 3 9 11 11 11 12 13 12 12 14 13 13 14 14 14
8 4 8 19 23 21 15 5 3 4 3 4 6 7 8 8 9 10 9 9 8 7 7 9 11 10 10 9 8 8 8 7 7 6 2 2 5 6 8 12 12 10 6 5 7 3 3 5 9 9 9 10 12 15 18 19 19 17 14 13 13 12 11 9 8 8 9 10 9 8 9 4 3 4 5 8 9 9 11 12 12 12 13 12 12 13 12 12
5 7 10 16 20 18 10 3 5 5 4 7 8 7 7 7 8 10 9 9 8 6 6 7 9 8 8 8 8 9 9 8 8 6 1 2 5 7 9 12 13 10 6 2 1 2 2 6 8 8 8 8 9 12 16 18 18 17 16 15 15 15 14 11 8 6 7 10 10 8 9 4 4 5 4 4 6 8 9 10 11 11 10 10 11 9 5 7
6 7 6 11 16 13 6 5 6 6 6 9 10 8 8 6 7 9 10 9 6 6 7 7 7 8 8 9 9 10 9 6 5 4 3 1 4 7 9 12 12 10 7 5 5 2 4 9 10 8 8 8 8 10 13 17 17 13 13 17 18 18 18 15 11 8 7 11 12 9 8 3 5 6 5 6 8 7 7 8 9 9 9 8 7 3 5 5
7 4 3 8 11 8 5 5 6 6 7 10 11 10 8 7 6 8 10 9 6 7 9 7 8 10 10 10 10 11 10 8 5 2 3 3 2 5 9 11 10 9 9 10 10 5 4 7 10 11 12 12 11 9 8 11 14 12 13 19 21 22 22 16 11 10 9 10 12 10 7 2 6 7 8 8 8 8 7 7 7 7 7 6 2 3 4 4
6 4 6 7 6 4 4 4 4 6 7 8 9 8 9 9 7 7 9 7 5 8 9 6 8 10 9 10 10 10 10 9 8 6 4 5 3 4 8 10 7 9 12 14 11 6 4 5 8 10 9 7 4 1 2 2 10 16 17 19 20 21 23 17 11 11 9 9 11 11 10 6 6 9 9 8 8 7 5 6 6 6 5 3 3 3 4 5
4 4 7 7 5 4 4 4 5 6 7 7 6 7 9 10 9 8 8 6 7 11 8 2 7 10 9 11 10 8 8 8 10 9 7 6 6 6 7 6 4 9 12 11 9 6 4 5 7 9 8 5 4 4 5 5 6 13 17 21 20 20 22 21 16 13 10 9 10 11 13 13 9 8 8 8 7 5 5 6 5 3 1 1 2 4 5 6
4 4 5 5 5 6 6 7 8 9 9 8 6 6 9 10 10 9 7 7 9 10 5 1 6 10 10 11 10 8 7 7 9 7 6 6 7 7 6 3 2 7 9 7 7 6 5 4 4 6 9 7 6 7 5 4 4 6 10 16 19 21 23 22 20 18 15 12 9 8 13 16 14 11 9 7 6 6 7 6 4 2 1 1 1 3 6 6
4 4 4 5 6 7 8 9 10 10 10 8 5 5 8 10 10 9 7 8 9 7 5 5 8 10 9 9 9 8 7 6 6 5 7 8 8 7 6 4 1 6 9 7 5 6 5 2 1 4 9 8 7 8 7 6 6 7 9 12 14 18 22 22 21 21 21 17 14 12 13 14 13 13 12 10 8 7 7 7 8 7 4 1 2 4 5 5
4 4 4 6 7 8 8 8 9 9 8 5 4 5 8 10 10 9 9 9 9 7 5 6 10 11 9 7 7 8 9 8 8 8 9 10 8 5 5 4 2 6 10 7 5 5 4 1 3 6 8 7 8 9 9 9 9 9 11 13 14 16 18 18 19 19 20 19 19 18 16 13 11 11 13 13 11 11 11 11 13 13 11 9 7 7 7 6
6 5 4 5 6 7 8 7 7 7 6 4 5 6 8 10 10 10 10 8 6 5 5 8 11 11 9 7 7 9 10 10 10 11 10 10 9 8 6 6 7 9 9 6 6 6 6 4 3 5 6 7 8 9 10 10 10 13 15 16 17 17 17 15 15 16 16 17 19 19 16 11 9 10 12 13 13 13 13 13 13 14 16 16 14 11 10 8
7 5 3 3 6 7 8 7 7 7 5 5 7 8 9 10 10 10 9 4 2 4 7 9 12 10 8 8 7 7 8 10 11 11 10 11 12 12 11 11 12 10 7 7 7 5 5 5 4 3 5 5 6 7 8 7 9 14 15 17 18 18 16 16 16 17 17 15 14 13 11 9 9 11 12 13 14 14 13 12 13 13 14 16 16 15 14 12
Wind_Direction
356 355 353 350 348 347 345 343 341 340 340 345 348 347 345 343 340 337 334 332 329 326 322 320 319 319 318 317 317 319 323 320 303 268 243 256 258 237 244 241 192 172 160 159 157 160 165 174 176 174 178 180 200 193 184 205 208 207 227 243 249 242 146 61 53 52 24 42 59 135 183 189 157 160 147 155 172 151 161 163 140 142 112 110 127 140 149 152
355 354 352 350 348 346 344 342 340 341 343 346 347 345 343 341 338 335 332 330 326 323 321 317 315 316 316 316 317 321 326 312 284 264 260 266 267 253 242 223 191 169 163 163 164 170 170 174 173 173 183 178 188 181 177 192 198 212 231 242 250 255 81 66 36 49 23 21 33 74 188 214 177 162 169 180 174 161 167 163 157 148 125 121 134 144 150 155
354 352 351 349 347 345 342 341 340 341 342 343 345 344 341 338 336 333 330 328 324 322 320 315 313 313 313 315 318 326 325 302 278 265 267 273 254 239 222 200 189 171 169 172 172 177 175 173 171 175 188 187 187 180 182 187 193 216 236 244 252 275 123 152 230 13 17 1 3 46 164 222 185 161 182 197 176 176 185 170 167 162 145 141 145 150 154 159
354 351 350 348 346 344 341 340 339 340 339 340 342 341 339 336 334 330 327 325 322 320 315 312 311 308 312 316 321 331 319 288 277 254 183 108 141 202 196 189 185 175 176 179 176 181 179 172 172 182 192 196 194 189 196 187 189 208 220 244 278 353 220 179 190 218 337 342 344 10 173 216 183 176 198 201 184 194 205 186 178 169 154 151 153 156 159 163
354 351 350 348 345 343 340 338 339 341 342 342 342 340 338 334 331 328 326 323 319 316 311 309 305 304 311 316 326 331 304 277 305 110 133 106 80 116 172 185 184 178 180 182 180 183 180 174 177 188 198 200 190 193 208 198 206 224 220 244 260 260 229 152 157 194 238 304 325 301 239 219 178 197 213 205 204 197 191 188 182 171 159 156 159 161 163 167
354 352 350 347 345 342 339 338 341 344 343 343 342 339 336 331 329 327 323 319 315 311 307 304 300 300 309 323 336 297 262 263 60 111 154 110 71 86 154 181 183 180 182 185 183 183 180 177 181 191 201 208 196 199 210 199 213 239 228 236 242 249 246 207 208 211 232 274 294 288 272 231 195 214 219 211 220 144 98 168 171 166 161 159 161 164 167 170
353 352 349 347 344 341 341 343 345 345 343 343 341 338 334 330 328 325 321 315 311 307 300 296 291 289 299 21 254 231 240 258 276 234 214 243 329 357 170 180 181 182 188 188 182 183 181 181 188 194 201 209 205 206 204 197 210 235 244 239 237 244 246 249 252 240 249 267 276 276 270 238 216 225 216 211 221 209 108 152 155 154 157 160 163 169 172 172
353 351 348 347 343 341 344 346 346 345 343 342 340 337 333 331 328 324 319 312 307 302 293 287 279 276 252 182 238 241 239 250 259 257 258 265 272 261 178 177 182 185 190 190 183 183 184 187 193 193 204 209 207 204 193 196 213 228 243 248 246 250 250 254 255 253 256 262 264 259 258 242 225 238 234 217 212 186 149 146 146 151 157 163 168 172 174 174
352 350 348 345 342 342 345 346 346 344 342 341 339 337 334 332 328 322 316 310 305 297 288 277 263 245 172 196 244 261 249 250 260 256 259 258 238 193 173 174 184 188 189 191 186 184 186 192 195 195 211 210 200 202 194 203 217 221 235 247 254 257 259 259 257 257 256 255 254 250 251 245 230 240 244 226 204 171 153 148 147 154 161 166 171 173 175 177
351 349 347 344 343 344 346 347 346 343 341 340 338 336 334 332 326 322 316 309 304 292 282 264 240 195 173 206 235 255 249 244 296 266 250 227 188 179 177 177 182 187 190 190 189 189 190 195 197 199 227 218 199 203 200 212 230 208 234 251 256 263 265 261 260 257 259 256 247 247 254 254 232 224 235 215 183 163 153 152 154 159 165 168 172 174 176 179
349 348 345 344 346 346 348 347 345 343 340 338 337 336 335 331 327 323 317 312 304 287 270 244 206 180 190 220 230 240 239 258 307 317 213 182 173 175 179 182 182 187 190 188 192 193 194 199 195 193 226 212 197 208 210 218 243 251 255 263 255 259 258 253 256 253 252 251 241 244 255 259 228 212 229 196 161 163 162 157 160 165 167 170 173 174 176 181
348 346 344 345 347 348 349 347 344 342 338 337 336 336 335 331 329 327 327 326 310 287 256 217 183 175 194 224 234 237 292 357 286 113 137 152 163 172 179 186 187 191 191 188 194 193 196 200 192 194 201 185 194 210 218 212 233 252 256 267 260 257 254 245 247 246 240 243 236 237 254 249 218 216 224 181 159 168 170 162 164 168 168 170 173 174 176 181
347 345 344 346 348 349 349 346 344 340 336 335 335 336 335 332 331 340 350 348 332 304 228 188 172 180 209 228 242 240 237 231 142 137 136 139 145 164 185 193 191 197 198 195 195 192 196 195 192 204 207 204 202 176 192 202 218 242 239 254 262 255 250 238 236 237 235 240 225 221 256 242 206 210 206 166 167 174 172 169 169 169 169 171 173 175 177 180
346 344 343 346 348 349 348 346 344 339 334 334 335 336 334 331 334 360 10 8 360 9 165 164 167 181 216 241 267 248 228 213 192 175 159 154 145 144 176 187 188 196 201 202 200 192 195 193 196 212 218 228 225 151 205 203 203 230 230 236 248 250 238 219 215 227 226 213 200 216 255 260 185 180 177 164 174 178 175 175 172 170 169 171 174 176 180 180
346 343 344 346 347 347 348 346 343 338 334 335 335 335 333 326 336 16 27 29 30 89 135 148 175 192 235 255 260 249 225 216 221 208 189 183 178 164 165 175 184 187 185 192 198 191 195 198 202 216 212 219 241 213 214 214 203 217 224 223 224 237 238 209 184 212 225 181 184 214 245 259 163 146 164 167 181 184 180 178 174 174 172 171 175 177 181 182
345 345 346 348 347 347 347 345 343 339 336 335 334 334 329 313 325 28 43 46 58 100 129 152 188 218 272 272 190 206 214 212 223 215 206 206 202 191 163 166 177 179 177 176 182 186 193 200 205 218 211 203 217 220 217 220 214 208 220 231 220 219 229 217 184 206 231 212 198 216 246 264 149 138 164 170 186 190 186 182 176 177 175 173 176 177 180 181
345 346 347 349 349 348 347 345 343 341 338 337 335 333 328 304 285 81 63 56 67 113 189 222 186 216 266 264 157 203 210 204 211 206 208 212 213 205 168 165 173 175 180 180 182 184 188 197 201 210 215 210 208 210 220 219 212 203 209 231 233 223 224 219 185 182 218 225 221 222 240 262 215 151 173 176 187 195 195 188 179 179 177 176 177 178 180 181
345 346 348 349 349 348 347 346 345 344 340 338 336 332 331 315 270 226 237 216 201 205 237 237 192 221 248 222 209 200 185 191 190 188 200 205 209 205 182 177 172 168 175 180 190 187 183 192 197 203 209 213 208 203 213 215 209 208 205 217 230 226 229 229 205 159 190 218 229 229 234 246 234 188 180 183 190 199 203 194 185 182 179 178 180 180 181 183
346 348 349 349 349 347 346 346 347 345 342 345 346 334 323 313 257 225 230 227 220 223 242 175 190 241 319 199 210 165 139 169 185 188 187 188 193 194 188 185 171 169 177 181 189 189 184 189 197 209 208 204 208 208 214 218 218 223 217 216 224 222 228 233 223 170 196 231 236 241 246 247 243 211 186 188 193 201 205 197 191 187 182 182 183 184 184 185
348 349 349 349 348 346 346 347 349 350 356 1 350 327 306 334 275 214 248 255 246 249 272 256 217 250 292 214 190 215 214 204 208 202 183 174 175 179 184 179 171 177 187 184 184 185 190 202 204 210 210 204 208 212 218 223 228 235 226 219 228 231 228 227 219 185 209 250 244 247 260 259 259 244 202 189 194 201 205 200 196 193 188 187 188 188 186 187
349 349 349 348 347 345 345 348 351 359 15 11 358 358 37 7 340 333 328 287 261 249 260 258 240 247 255 251 164 71 241 215 213 203 178 171 172 175 178 176 178 188 194 189 182 180 195 215 214 208 211 209 207 211 218 222 221 227 228 223 229 233 234 234 224 185 195 245 252 253 265 262 259 261 224 192 198 202 202 202 199 197 194 192 192 191 186 184
348 349 349 347 346 345 344 347 357 10 18 13 21 51 47 12 338 313 309 294 282 256 246 249 246 245 246 247 245 258 287 237 213 196 174 174 180 180 176 179 190 190 189 193 184 184 204 221 217 207 208 212 211 210 212 218 219 222 230 231 234 231 233 239 227 207 214 241 254 253 262 264 258 261 233 200 203 205 205 207 202 198 197 195 195 192 187 182
348 350 348 346 346 343 342 346 3 11 8 12 31 46 22 357 333 300 273 282 290 267 240 237 237 238 235 238 236 230 240 236 217 199 180 182 190 188 180 184 196 193 187 197 195 191 206 219 216 208 207 211 212 206 206 214 220 224 229 228 233 230 228 235 217 209 225 238 254 261 265 265 259 252 232 211 207 205 209 211 207 203 200 199 196 192 187 184
347 349 348 346 344 342 343 347 8 7 351 358 29 32 3 340 332 310 274 266 283 277 250 231 228 237 233 219 203 202 219 229 222 206 184 186 194 191 191 190 194 198 196 200 202 205 213 209 205 208 207 207 206 201 205 213 220 224 227 229 232 229 229 238 217 195 221 230 237 254 264 261 252 245 235 215 202 202 206 209 210 209 207 204 199 194 191 188
347 348 347 346 343 342 342 346 16 357 329 309 12 6 348 334 333 309 282 264 262 263 225 206 212 230 215 185 176 186 211 226 222 213 188 189 198 190 194 197 197 204 202 202 206 216 222 203 186 205 204 201 206 209 210 213 222 224 224 229 235 237 234 237 232 222 237 232 220 231 252 256 242 241 240 215 194 197 199 203 208 208 206 205 201 197 195 192
346 346 347 346 343 342 342 351 357 341 316 321 351 344 336 332 328 289 270 273 255 217 145 180 198 172 172 171 176 182 213 227 215 211 198 194 202 200 195 195 202 211 203 201 209 222 225 206 185 200 198 199 212 219 212 209 222 229 220 223 229 237 239 234 230 232 243 249 235 225 243 260 247 239 237 210 194 198 196 202 206 203 203 202 201 199 196 194
346 345 345 345 344 344 342 328 334 332 325 335 333 330 329 326 316 274 255 261 249 150 125 166 166 149 174 172 175 180 191 184 183 197 201 194 198 209 212 198 196 211 200 196 213 215 214 205 188 194 199 203 215 219 208 206 219 230 219 218 220 224 231 231 231 237 247 259 251 224 230 259 258 243 233 209 201 200 196 202 204 201 204 204 202 201 197 196
346 344 344 344 341 340 330 309 318 330 334 325 322 322 323 318 287 247 260 270 223 117 113 110 112 152 185 166 185 195 137 96 167 188 190 192 195 205 218 209 200 204 199 200 214 201 202 206 194 194 201 206 215 215 204 202 217 227 215 218 221 219 225 229 235 243 248 254 248 226 223 246 255 243 237 224 215 208 201 202 204 203 204 205 205 204 201 199
345 344 344 341 337 339 331 309 297 310 324 320 319 318 315 301 260 230 254 267 158 110 58 127 143 166 131 157 203 222 239 247 236 170 182 193 199 205 221 217 208 207 207 212 219 204 199 210 204 197 203 212 213 210 204 202 214 220 201 204 220 218 223 228 234 242 243 245 245 232 226 238 253 243 231 224 218 218 214 206 204 203 201 203 206 206 203 200
343 342 343 339 335 337 326 304 285 311 322 319 317 316 305 260 233 228 226 243 104 68 7 117 113 257 146 185 211 221 232 238 189 145 186 192 195 206 224 222 217 216 213 214 223 223 206 205 211 206 210 218 211 207 209 207 210 212 200 203 214 211 219 226 228 235 240 242 239 233 230 237 255 248 229 223 218 218 225 218 205 199 198 202 205 207 205 200
342 341 342 337 326 322 318 308 317 323 321 319 318 311 283 219 238 238 215 250 25 15 9 51 16 334 313 314 255 203 211 225 208 167 182 184 188 199 204 207 213 216 213 210 219 225 211 195 207 210 213 216 213 211 210 203 206 210 201 204 211 206 210 220 216 219 234 240 232 228 228 233 247 247 230 228 223 218 225 225 209 197 196 200 203 206 206 201
342 342 344 340 325 321 312 310 319 321 319 318 315 298 249 230 234 230 238 313 339 6 8 357 340 333 322 311 277 219 213 217 208 187 185 188 187 192 197 196 191 196 208 206 205 214 214 207 203 204 208 209 208 208 199 194 202 207 202 204 208 197 194 207 209 212 230 238 231 227 225 228 242 246 239 238 231 222 225 228 221 206 198 197 199 204 203 201
342 346 355 6 353 327 310 314 317 317 320 318 308 275 248 251 235 232 269 312 14 4 348 331 322 317 304 293 260 221 230 210 194 193 193 195 194 197 203 205 198 200 210 200 196 205 210 211 204 201 202 202 204 204 192 191 198 200 200 201 202 196 194 205 211 216 232 233 223 222 225 233 244 248 239 234 233 228 223 222 224 217 205 199 198 201 201 200
345 352 353 350 345 326 317 319 316 317 319 314 297 264 249 242 247 279 300 353 3 342 330 327 318 306 286 268 281 345 241 210 193 198 194 193 201 200 201 207 207 210 218 205 201 201 205 210 203 198 191 190 200 208 201 192 193 200 202 207 211 211 209 210 211 218 230 227 205 200 211 231 236 245 237 227 221 219 220 219 222 224 217 207 200 200 200 200
349 352 335 325 338 331 327 320 315 317 314 303 286 262 250 246 259 290 341 357 349 339 333 322 302 288 270 233 171 26 316 199 192 205 202 197 204 202 199 205 206 209 215 212 204 202 213 220 193 192 193 187 194 205 206 197 193 197 200 210 215 215 220 231 240 242 251 241 205 195 210 232 227 161 152 214 207 207 217 223 223 225 222 214 204 199 200 201
348 347 333 341 344 336 332 323 317 314 300 289 276 253 256 285 326 350 1 352 340 336 330 316 288 272 264 210 146 71 4 333 216 211 211 203 204 206 200 199 205 209 212 215 210 199 215 221 177 183 195 194 192 197 200 202 197 187 198 213 212 209 222 237 245 257 271 251 217 201 221 233 245 244 214 205 203 199 208 214 215 219 218 213 206 199 200 201
340 338 326 347 348 340 332 324 316 304 281 270 268 270 305 355 15 1 349 346 334 323 318 310 319 322 296 279 42 20 347 315 234 221 214 197 190 241 222 202 222 217 218 236 232 207 213 215 172 178 193 193 191 193 198 206 207 192 197 204 198 206 225 239 238 225 224 238 227 217 228 227 231 241 211 204 209 205 206 210 211 213 211 209 206 202 203 201
327 321 297 353 350 341 331 323 311 292 269 262 260 265 315 338 354 347 340 342 327 311 300 283 296 335 325 311 330 352 333 311 312 278 220 188 166 16 347 338 20 337 310 319 251 209 213 214 171 178 191 185 183 194 199 203 210 218 210 193 190 204 211 212 227 226 219 232 234 227 233 231 225 230 207 204 209 209 210 211 213 213 208 207 207 206 206 204
326 314 301 8 350 339 332 316 298 282 263 269 269 264 324 334 336 336 335 334 320 306 290 275 279 295 303 312 321 334 320 310 335 307 249 186 159 36 22 345 335 350 345 313 245 210 208 221 185 178 189 180 178 199 203 193 202 218 221 202 199 210 210 204 212 225 226 233 237 229 230 232 228 228 223 211 206 208 209 206 212 217 214 210 210 208 205 201
332 312 29 8 348 336 328 302 281 296 279 283 306 311 332 334 329 328 333 331 316 299 288 287 292 285 289 310 308 310 311 303 310 297 282 14 80 76 34 5 338 337 336 278 237 233 213 225 209 173 182 186 186 200 203 192 190 203 211 207 201 201 212 216 212 215 228 236 239 238 236 233 216 217 221 216 204 204 207 206 209 217 219 216 215 215 204 196
324 300 12 2 346 334 323 296 288 348 309 322 340 324 328 324 318 322 329 328 312 292 287 287 288 284 283 296 297 302 308 294 290 284 268 323 51 68 30 5 345 327 320 237 216 227 225 222 218 188 182 194 199 197 202 202 194 196 205 205 200 199 204 212 210 209 221 235 237 245 253 253 83 162 209 211 208 207 212 217 214 214 220 220 219 220 207 196
324 330 351 352 343 333 320 304 19 355 326 352 335 315 320 313 312 320 327 332 319 299 290 278 277 281 275 280 294 300 304 297 285 280 269 35 30 31 17 358 342 324 305 227 199 224 288 237 219 210 195 202 207 194 199 208 202 200 207 204 200 204 206 209 208 199 208 228 236 246 260 268 90 128 179 190 204 215 218 223 222 219 219 217 222 225 210 198
338 331 331 344 343 333 321 338 8 353 358 356 332 313 315 309 315 324 328 336 329 314 309 287 282 289 282 286 294 284 286 291 280 275 287 48 40 28 8 357 346 338 332 287 164 62 279 230 216 221 209 205 211 194 195 208 208 206 210 207 206 208 208 214 222 211 210 219 220 231 246 234 131 147 171 177 202 218 218 218 224 226 222 218 226 227 190 174
333 317 322 352 352 343 349 17 358 349 357 347 332 324 325 321 326 329 328 336 339 327 316 299 298 305 298 298 289 276 280 280 262 263 273 311 40 25 4 2 355 354 13 3 347 353 231 215 207 217 210 195 198 193 195 207 212 214 213 208 210 212 209 214 225 230 229 221 215 221 236 211 131 158 192 199 205 211 212 215 219 224 228 229 227 192 141 155
330 327 348 357 357 2 30 29 353 346 352 343 333 332 331 327 334 338 331 330 333 326 316 311 318 314 300 294 281 266 267 264 259 271 268 276 358 17 359 356 355 360 8 350 331 310 256 222 208 211 209 202 197 193 196 205 206 213 218 211 209 210 210 212 219 222 223 220 219 225 231 171 128 163 186 186 197 209 212 216 216 217 226 229 201 132 144 186
335 341 352 348 348 5 27 23 354 346 347 339 332 333 332 328 338 347 337 331 337 330 322 329 343 332 315 312 297 266 252 252 261 275 273 277 298 348 345 339 354 5 349 337 331 306 269 238 226 232 234 230 220 205 353 275 211 205 210 213 210 209 210 212 218 220 215 218 225 226 228 213 163 168 178 180 189 197 201 216 220 213 212 193 160 164 188 214
343 344 353 343 328 342 356 357 353 349 339 330 325 324 324 325 334 343 343 341 342 334 321 346 24 7 352 340 322 284 265 259 255 262 268 284 303 316 319 315 354 2 338 331 341 321 266 219 222 248 265 276 302 322 340 329 237 211 208 211 211 210 211 214 221 221 210 218 228 217 216 225 209 177 176 188 198 202 215 236 239 229 250 227 157 170 196 212
355 343 353 343 315 324 338 338 336 332 324 320 317 311 315 325 336 341 342 334 330 336 330 321 18 11 359 344 326 300 296 278 254 260 279 294 305 309 306 290 2 7 342 331 358 349 283 231 206 245 262 266 278 282 284 289 269 246 226 216 211 211 213 216 223 225 219 225 236 214 209 222 224 213 204 205 214 222 230 250 279 313 302 268 203 190 194 191
347 328 341 338 314 310 318 319 317 318 322 324 318 313 319 327 334 336 337 326 319 334 343 317 339 356 354 340 320 307 315 299 273 305 328 313 305 306 299 261 184 26 355 333 2 360 301 269 36 280 271 267 258 253 256 260 252 245 241 231 221 219 220 221 224 228 229 234 239 234 228 227 227 230 236 238 241 247 257 274 282 277 266 247 243 227 211 198
337 330 331 321 310 307 308 310 310 313 322 323 309 325 329 323 328 333 327 319 315 323 331 317 326 337 335 328 316 301 307 307 297 309 322 315 310 311 299 273 296 359 344 333 355 344 309 335 4 303 277 255 243 240 241 245 244 241 237 233 231 231 230 229 229 228 231 235 237 238 241 237 228 233 245 250 250 252 257 262 267 276 285 285 274 258 248 251
319 319 317 306 308 312 309 312 315 309 316 325 319 331 329 315 323 328 316 312 318 321 327 321 320 323 315 305 301 293 296 303 296 292 301 303 298 299 295 290 310 328 328 329 336 322 307 316 321 291 261 237 224 225 231 239 248 249 239 229 227 229 230 232 232 231 231 233 235 237 240 241 234 234 242 245 244 245 249 252 257 268 276 277 275 265 256 262
324 315 318 299 295 304 308 310 311 305 313 330 322 318 313 307 316 323 315 313 309 307 317 314 309 309 301 290 294 297 296 297 292 287 289 283 277 279 278 276 285 294 298 307 314 307 298 304 304 278 257 234 202 207 229 242 247 245 235 226 225 226 229 232 232 233 233 234 236 237 239 242 240 238 240 236 234 239 247 252 255 260 265 269 270 263 259 269